Zurück zum Katalog

INMARSAT 3-F4

AktivKommunikationGEO
NORAD 24819·PAYLOAD·🇮🇲 IM

Gestartet Jun 3, 1997 von Guiana Space Centre

Loading…

TLE

AktuellSource: Space-Track

Epoche: Sep 14, 2026, 14:22 UTC

1 24819U 97027A   26257.59863348 -.00000298  00000-0  00000-0 0  9997
2 24819  11.6852  36.9715 0009123  85.1683 239.9112  0.99504010106941

Verfolge INMARSAT 3-F4 in Echtzeit mit AllMySat

Download on the App Store